Location: Mount Tamalpais State Park
(37.9108°N, 122.6128°W)
Time: 05:00:39
(UTC-07:00)

Cosmos 1814 Rocket - Visible Passes

Search period start: 28 March 2017 00:00
Search period end: 07 April 2017 00:00
Orbit: 746 x 787 km, 74.1° (Epoch: 24 March)

Date Brightness Start Highest point End Pass type
(mag) Time Alt. Az. Time Alt. Az. Time Alt. Az.
28 Mar 4.1 05:20:45 18° S 05:24:39 76° ESE 05:29:49 10° NNE visible
29 Mar 5.0 04:44:40 24° SSE 04:47:12 41° ESE 04:52:01 10° NNE visible
29 Mar 5.3 06:25:24 10° WSW 06:29:22 22° WNW 06:33:19 10° N visible
30 Mar 5.9 04:08:26 21° ESE 04:09:51 23° E 04:13:52 10° NE visible
30 Mar 4.6 05:48:42 21° WSW 05:51:37 37° WNW 05:56:22 10° N visible
31 Mar 6.6 03:32:06 12° E 03:32:36 13° E 03:34:45 10° ENE visible
31 Mar 3.9 05:12:22 43° SW 05:13:58 66° WNW 05:19:06 10° NNE visible
01 Apr 4.0 04:35:57 65° SE 04:36:26 70° ESE 04:41:34 10° NNE visible
01 Apr 5.8 06:16:22 10° W 06:18:58 14° WNW 06:21:35 10° NNW visible
02 Apr 5.2 03:59:27 37° E 03:59:27 37° E 04:03:45 10° NE visible
02 Apr 5.2 05:39:42 21° W 05:41:06 23° WNW 05:45:12 10° N visible
03 Apr 6.2 03:22:54 20° ENE 03:22:54 20° ENE 03:25:30 10° NE visible
03 Apr 4.5 05:03:08 39° WNW 05:03:22 39° WNW 05:08:12 10° N visible
04 Apr 4.2 04:26:31 60° NNW 04:26:31 60° NNW 04:30:53 10° NNE visible
05 Apr 5.1 03:49:52 41° NE 03:49:52 41° NE 03:53:19 10° NNE visible
05 Apr 5.7 05:30:05 14° WNW 05:30:42 15° WNW 05:33:34 10° NNW visible
06 Apr 6.0 03:13:09 23° NE 03:13:09 23° NE 03:15:27 10° NE visible
06 Apr 5.3 04:53:23 24° NW 04:53:23 24° NW 04:57:03 10° N visible
